Location: Maccacari
(45.1333°N, 11.1333°E)
Time: 00:42:38
(UTC+00:00)

A-11 Canister half - Pass Details

Date: 21 January 2021
Orbit: 1525 x 1684 km, 47.3° (Epoch: 07 March)

Event Time Altitude Azimuth Distance (km) Brightness Sun altitude
Rises 15:31:06 0° 245° (WSW) 4,680 13.9 4.7°
Reaches altitude 10° 15:34:06 10° 245° (WSW) 3,709 13.4 4.3°
Maximum altitude 15:43:30 84° 159° (SSE) 1,580 9.2 2.9°
Drops below altitude 10° 15:53:14 10° 73° (ENE) 3,831 10.5 1.4°
Sets 15:56:23 0° 73° (ENE) 4,840 10.9 0.9°
